HORIZONS 2

Last updated on Jan. 28, 2020, 4:41 a.m. UTC

1 32388U 07063B   20027.87025510 -.00000186  00000-0  00000-0 0  9995
2 32388   0.0183  64.6892 0003005 265.4959 194.5272  1.00271117 44470
UTC
Height (km)
Latitude
Longitude
Inclination
Orbital Period
UTC large
Height (km)
Speed (km/s)
/
Latitude / Longitude
Inclination (degrees)
Orbital Period (minutes)
Azimuth
Elevation
Range (km)
Doppler Factor
iOS Compass Heading
iOS Angle

Next 30 passes for location: Hong Kong

Rise time Rise Azimuth (degrees) Set time Set Azimuth (degrees) Duration Max altitude (degrees)

No matching passes for this satellites